N9CQL Weather Reports


time (UTC)temp
F
wind
direction
speed
knots
gust
knots
rain 1hr
in
rain 24hr
in
rain mn
in
humidity
%
barometer
mb
20260504050433 56 93 0.0 0.0 0.00 0.00 0.00 73 1004.6
20260504045931 56 51 0.0 0.0 0.00 0.00 0.00 73 1004.9
20260504045426 57 74 0.0 0.0 0.00 0.00 0.00 72 1004.7
20260504044922 56 171 0.0 0.0 0.00 0.00 0.00 72 1004.6
20260504044420 56 86 0.0 0.0 0.00 0.00 0.00 73 1004.7
20260504043917 57 114 0.0 0.0 0.00 0.00 0.00 72 1004.5
20260504043414 57 122 0.0 0.0 0.00 0.00 0.00 72 1004.6
20260504042912 56 78 0.0 0.0 0.00 0.00 0.00 72 1004.8
20260504042408 57 99 0.0 0.0 0.00 0.00 0.00 71 1004.7
20260504041904 57 117 0.0 0.0 0.00 0.00 0.00 71 1004.6
20260504041401 57 122 0.0 0.0 0.00 0.00 0.00 71 1004.6
20260504040856 57 125 0.0 0.0 0.00 0.00 0.00 71 1004.7
20260504040354 57 120 0.0 0.0 0.00 0.00 0.00 71 1004.8
20260504035850 57 115 0.0 0.0 0.00 0.00 0.00 70 1004.6
20260504035348 57 114 0.0 0.0 0.00 0.00 0.00 70 1004.7
20260504034844 57 116 0.0 0.0 0.00 0.00 0.00 69 1004.9
20260504034342 57 121 0.0 0.0 0.00 0.00 0.00 70 1004.8
20260504033839 57 116 0.0 0.0 0.00 0.00 0.00 69 1005.0
20260504033337 58 115 0.0 0.0 0.00 0.00 0.00 69 1005.1
20260504032833 58 114 0.0 0.0 0.00 0.00 0.00 68 1005.1
20260504032330 58 112 0.0 0.0 0.00 0.00 0.00 68 1005.1
20260504031827 58 125 0.0 0.0 0.00 0.00 0.00 68 1005.3
20260504031319 58 121 0.0 0.0 0.00 0.00 0.00 68 1005.2
20260504030815 58 119 0.0 0.0 0.00 0.00 0.00 68 1005.1
20260504030313 58 108 0.0 0.0 0.00 0.00 0.00 68 1005.3
20260504025808 58 98 0.0 0.0 0.00 0.00 0.00 67 1005.2
20260504025306 58 108 0.0 0.0 0.00 0.00 0.00 66 1005.3
20260504024802 59 99 0.0 0.0 0.00 0.00 0.00 66 1005.4
20260504024259 59 103 0.0 0.0 0.00 0.00 0.00 66 1005.3
20260504023755 59 116 0.0 0.0 0.00 0.00 0.00 65 1005.2
20260504023252 59 108 0.0 0.0 0.00 0.00 0.00 64 1005.3
20260504022748 59 99 0.0 0.0 0.00 0.00 0.00 65 1005.1
20260504022244 59 106 0.0 0.0 0.00 0.00 0.00 64 1005.3
20260504021741 59 127 0.0 0.0 0.00 0.00 0.00 64 1005.3
20260504021239 60 107 0.0 0.0 0.00 0.00 0.00 63 1005.1
20260504020735 60 119 0.0 0.0 0.00 0.00 0.00 63 1005.0
20260504020232 60 93 0.0 0.0 0.00 0.00 0.00 62 1005.0
20260504015728 60 92 0.0 0.0 0.00 0.00 0.00 62 1004.9
20260504015225 61 117 0.0 0.0 0.00 0.00 0.00 61 1004.9
20260504014720 61 91 0.0 0.0 0.00 0.00 0.00 61 1004.9
20260504014217 61 113 0.0 0.0 0.00 0.00 0.00 61 1004.7
20260504013715 61 109 0.0 0.0 0.00 0.00 0.00 60 1004.9
20260504013213 62 109 0.0 0.0 0.00 0.00 0.00 60 1004.8
20260504012709 62 116 0.0 0.0 0.00 0.00 0.00 59 1004.6
20260504012207 62 129 0.0 0.0 0.00 0.00 0.00 59 1004.5
20260504011704 62 123 0.0 0.0 0.00 0.00 0.00 58 1004.8
20260504011200 63 120 0.0 0.0 0.00 0.00 0.00 58 1004.5
20260504010656 63 52 0.0 0.0 0.00 0.00 0.00 57 1004.4
20260504010152 63 120 0.0 0.0 0.00 0.00 0.00 56 1004.4
20260504005649 64 117 0.0 0.0 0.00 0.00 0.00 55 1004.6
20260504005145 64 149 0.0 0.0 0.00 0.00 0.00 54 1004.8
20260504004644 64 158 0.0 0.0 0.00 0.00 0.00 55 1004.3
20260504004140 64 138 0.0 0.0 0.00 0.00 0.00 55 1004.7
20260504003637 65 107 0.0 0.0 0.00 0.00 0.00 53 1004.5
20260504003133 65 100 0.0 0.0 0.00 0.00 0.00 53 1004.7
20260504002630 65 204 0.0 0.0 0.00 0.00 0.00 52 1004.6
20260504002128 66 297 0.0 0.0 0.00 0.00 0.00 51 1004.7
20260504001626 66 235 0.0 0.0 0.00 0.00 0.00 51 1004.7
20260504001121 66 81 0.0 0.0 0.00 0.00 0.00 50 1004.7
20260504000619 67 104 0.0 0.0 0.00 0.00 0.00 50 1004.6
20260504000116 67 281 0.0 0.0 0.00 0.00 0.00 49 1004.7
20260503235614 67 164 0.0 0.9 0.00 0.00 0.00 48 1004.6
20260503235111 67 86 0.0 0.0 0.00 0.00 0.00 48 1004.7
20260503234609 68 20 0.0 0.0 0.00 0.00 0.00 48 1004.5
20260503234106 68 227 0.0 0.0 0.00 0.00 0.00 47 1004.6
20260503233603 68 186 0.0 0.0 0.00 0.00 0.00 46 1004.5
20260503233059 68 202 0.0 0.0 0.00 0.00 0.00 46 1004.6
20260503232556 69 204 0.0 0.0 0.00 0.00 0.00 46 1004.8
20260503232053 69 144 0.0 0.0 0.00 0.00 0.00 46 1004.5
20260503231551 69 147 0.0 0.0 0.00 0.00 0.00 45 1004.6
20260503231048 70 246 0.0 0.0 0.00 0.00 0.00 45 1004.8
20260503230544 70 214 0.9 1.7 0.00 0.00 0.00 44 1004.7
20260503230042 69 249 0.0 0.0 0.00 0.00 0.00 45 1004.9
20260503225538 70 213 0.0 0.0 0.00 0.00 0.00 44 1004.8
20260503225033 69 261 0.0 0.0 0.00 0.00 0.00 44 1004.8
20260503224531 70 149 0.0 0.0 0.00 0.00 0.00 44 1005.0
20260503224029 70 154 0.0 0.0 0.00 0.00 0.00 44 1005.0
20260503223527 70 195 0.0 1.7 0.00 0.00 0.00 43 1005.1
20260503223022 70 262 0.0 0.0 0.00 0.00 0.00 43 1005.2
20260503222520 70 216 0.0 0.0 0.00 0.00 0.00 44 1005.4
20260503222018 71 251 0.0 0.0 0.00 0.00 0.00 45 1005.4
20260503221516 71 132 0.0 0.0 0.00 0.00 0.00 43 1005.4
20260503221013 70 220 0.0 0.0 0.00 0.00 0.00 43 1005.4
20260503220509 71 256 0.0 0.0 0.00 0.00 0.00 43 1005.7
20260503220006 71 176 0.0 0.0 0.00 0.00 0.00 42 1005.5
20260503215503 69 153 0.0 1.7 0.00 0.00 0.00 44 1005.5
20260503215000 69 120 0.9 1.7 0.00 0.00 0.00 43 1005.7
20260503214458 69 123 2.6 5.2 0.00 0.00 0.00 44 1005.8
20260503213955 69 144 0.0 0.0 0.00 0.00 0.00 43 1005.8
20260503213453 69 217 1.7 5.2 0.00 0.00 0.00 45 1006.0
20260503212949 69 219 0.0 0.0 0.00 0.00 0.00 44 1005.8
20260503212447 68 232 0.0 0.0 0.00 0.00 0.00 45 1006.1
20260503211944 68 56 0.0 0.0 0.00 0.00 0.00 45 1006.0
20260503211441 67 198 0.0 0.0 0.00 0.00 0.00 45 1006.3
20260503210936 66 183 0.9 1.7 0.00 0.00 0.00 45 1006.2
20260503210433 66 165 0.0 0.0 0.00 0.00 0.00 45 1006.4
20260503205928 64 168 0.0 0.9 0.00 0.00 0.00 47 1006.6
20260503205426 64 225 0.0 0.0 0.00 0.00 0.00 46 1006.6
20260503204921 65 327 0.9 2.6 0.00 0.00 0.00 46 1006.7
20260503204419 65 248 0.0 0.0 0.00 0.00 0.00 46 1007.0
20260503203916 64 266 0.9 1.7 0.00 0.00 0.00 44 1007.0
20260503203413 64 251 0.0 0.9 0.00 0.00 0.00 46 1007.0
20260503202910 64 159 0.0 0.0 0.00 0.00 0.00 46 1007.1
20260503202409 65 265 0.0 1.7 0.00 0.00 0.00 45 1007.0
20260503201907 66 204 0.9 1.7 0.00 0.00 0.00 45 1007.3
20260503201403 68 277 2.6 4.3 0.00 0.00 0.00 43 1007.2
20260503200901 69 176 4.3 7.8 0.00 0.00 0.00 43 1007.4
20260503200356 68 186 3.5 5.2 0.00 0.00 0.00 42 1007.6
20260503195854 68 150 0.9 4.3 0.00 0.00 0.00 45 1007.4
20260503195350 67 249 2.6 7.0 0.00 0.00 0.00 46 1007.4
20260503194848 68 232 0.0 0.9 0.00 0.00 0.00 46 1007.5
20260503194344 68 254 0.9 1.7 0.00 0.00 0.00 46 1007.5
20260503193840 68 320 0.0 0.9 0.00 0.00 0.00 46 1007.6
20260503193336 68 156 0.9 1.7 0.00 0.00 0.00 48 1007.5
20260503192832 67 234 0.0 0.0 0.00 0.00 0.00 51 1007.5
20260503192327 66 137 0.9 2.6 0.00 0.00 0.00 51 1007.7
20260503191824 66 243 3.5 6.1 0.00 0.00 0.00 52 1007.8
20260503191321 65 183 0.0 1.7 0.00 0.00 0.00 55 1007.8
20260503190818 64 166 4.3 9.6 0.00 0.00 0.00 54 1008.2
20260503190315 64 246 0.0 0.0 0.00 0.00 0.00 56 1008.1
20260503185812 63 196 0.9 2.6 0.00 0.00 0.00 59 1008.2
20260503185307 62 152 0.9 2.6 0.00 0.00 0.00 58 1008.2
20260503184802 62 348 1.7 1.7 0.00 0.00 0.00 61 1008.5
20260503184259 61 208 0.0 0.0 0.00 0.00 0.00 64 1008.5
20260503183754 59 177 0.0 0.0 0.00 0.00 0.00 66 1008.7
20260503183252 58 124 0.0 0.0 0.00 0.00 0.00 68 1008.8
20260503182749 57 176 1.7 2.6 0.00 0.00 0.00 67 1009.2
20260503182248 56 222 0.0 0.9 0.00 0.00 0.00 69 1009.2
20260503181745 56 219 0.0 0.9 0.00 0.00 0.00 69 1009.2
20260503181242 56 274 0.0 0.0 0.00 0.00 0.00 70 1009.5
20260503180738 55 74 0.9 1.7 0.00 0.00 0.00 69 1009.5
20260503180237 55 142 0.0 0.9 0.00 0.00 0.00 71 1009.7
20260503175732 54 327 0.0 0.9 0.00 0.00 0.00 77 1009.9
20260503175231 53 123 0.0 0.0 0.00 0.00 0.00 77 1010.5
20260503174726 53 191 1.7 1.7 0.00 0.00 0.00 78 1010.8
20260503174224 53 122 0.0 0.9 0.00 0.00 0.00 77 1010.7
20260503173719 53 243 0.0 0.9 0.00 0.00 0.00 78 1010.8
20260503173215 53 149 1.7 2.6 0.00 0.00 0.00 78 1011.1
20260503172712 53 83 1.7 1.7 0.00 0.00 0.00 79 1011.1
20260503172209 53 163 0.0 0.0 0.00 0.00 0.00 78 1011.4
20260503171705 53 213 0.9 1.7 0.00 0.00 0.00 77 1011.4
20260503171203 52 136 0.0 0.0 0.00 0.00 0.00 78 1011.6
20260503170700 52 161 0.0 0.9 0.00 0.00 0.00 79 1011.6
20260503170157 52 139 0.0 0.0 0.00 0.00 0.00 80 1011.9
20260503160118 53 265 0.9 1.7 0.00 0.00 0.00 72 1012.8
20260503150548 55 10 0.0 0.0 0.00 0.00 0.00 60 1012.3
20260503130938 51 168 0.0 0.0 0.00 0.00 0.00 61 1013.3
20260503130436 51 238 0.0 0.0 0.00 0.00 0.00 61 1013.2
20260503110326 47 109 0.0 0.0 0.00 0.00 0.00 63 1012.7
20260503100252 45 121 0.0 0.0 0.00 0.00 0.00 67 1013.0
20260503090212 45 156 0.0 0.0 0.00 0.00 0.00 65 1013.4
20260503081139 46 97 0.0 0.0 0.00 0.00 0.00 63 1013.4
20260503080635 45 132 0.0 0.0 0.00 0.00 0.00 64 1013.6
20260503080132 46 128 0.0 0.0 0.00 0.00 0.00 63 1013.6
20260503072609 46 172 0.0 0.0 0.00 0.00 0.00 62 1013.7
20260503072106 46 104 0.0 0.0 0.00 0.00 0.00 62 1013.7
20260503071603 45 141 0.0 0.0 0.00 0.00 0.00 62 1013.9
20260503071059 45 101 0.0 0.0 0.00 0.00 0.00 62 1014.1
20260503070556 45 146 0.0 0.0 0.00 0.00 0.00 62 1013.7
20260503055015 45 117 0.0 0.0 0.00 0.00 0.00 65 1014.5
20260503054510 45 110 0.0 0.0 0.00 0.00 0.00 65 1014.4
20260503054009 45 108 0.0 0.0 0.00 0.00 0.00 65 1014.6
20260503053506 45 108 0.0 0.0 0.00 0.00 0.00 64 1014.6
20260503053004 45 108 0.0 0.0 0.00 0.00 0.00 63 1014.8
20260503052500 45 104 0.0 0.0 0.00 0.00 0.00 63 1014.8